This is the latest recevied weather packets stored in our database for station/object WX0ABE-13. If no packets are shown the sender has not sent any weather packets the latest 10 day(s).
| Time | Temp. | Humidity | Pressure | Rain* | Wind** | Luminosity | Snow |
|---|---|---|---|---|---|---|---|
| 1788295871 | 29.44° C | 35% | 1016.3 hPa | 0 mm | - | 560 W/m² | - |
| 1788295567 | 30° C | 39% | 1016.2 hPa | 0 mm | - | 567 W/m² | - |
| 1788295262 | 30° C | 38% | 1016.5 hPa | 0 mm | - | 576 W/m² | - |
| 1788294961 | 28.89° C | 43% | 1016.6 hPa | 0 mm | - | 583 W/m² | - |
| 1788294657 | 28.89° C | 41% | 1016.5 hPa | 0 mm | - | 591 W/m² | - |
| 1788294356 | 28.89° C | 42% | 1016.7 hPa | 0 mm | - | 598 W/m² | - |
| 1788294053 | 28.89° C | 43% | 1017 hPa | 0 mm | - | 605 W/m² | - |
| 1788293748 | 27.78° C | 45% | 1016.8 hPa | 0 mm | - | 613 W/m² | - |
| 1788293447 | 27.22° C | 46% | 1016.7 hPa | 0 mm | - | 622 W/m² | - |
| 1788293147 | 27.22° C | 46% | 1016.7 hPa | 0 mm | - | 632 W/m² | - |
| 1788292842 | 27.78° C | 48% | 1016.8 hPa | 0 mm | - | 645 W/m² | - |
| 1788292540 | 27.22° C | 49% | 1017 hPa | 0 mm | - | 594 W/m² | - |
| 1788292240 | 27.22° C | 49% | 1017.1 hPa | 0 mm | - | 601 W/m² | - |
| 1788291935 | 26.67° C | 49% | 1017.2 hPa | 0 mm | - | 718 W/m² | - |
| 1788291631 | 26.11° C | 50% | 1017.2 hPa | 0 mm | - | 496 W/m² | - |
| 1788291330 | 26.11° C | 52% | 1017.2 hPa | 0 mm | - | 427 W/m² | - |
| 1788291025 | 26.11° C | 52% | 1017.4 hPa | 0 mm | - | 602 W/m² | - |
| 1788290720 | 25.56° C | 54% | 1017.5 hPa | 0 mm | - | 313 W/m² | - |
| 1788290416 | 26.67° C | 51% | 1017.5 hPa | 0 mm | - | 401 W/m² | - |
| 1788290112 | 25.56° C | 52% | 1017.3 hPa | 0 mm | - | 363 W/m² | - |
| 1788289807 | 25.56° C | 53% | 1017.4 hPa | 0 mm | - | 559 W/m² | - |
| 1788289506 | 25° C | 56% | 1017.5 hPa | 0 mm | - | 358 W/m² | - |
| 1788289201 | 25° C | 54% | 1017.7 hPa | 0 mm | - | 275 W/m² | - |
| 1788288895 | 25° C | 55% | 1017.7 hPa | 0 mm | - | 249 W/m² | - |
| 1788288594 | 25.56° C | 54% | 1017.7 hPa | 0 mm | - | 310 W/m² | - |
* Rain latest hour (hover to see other rain measurements)
** Current wind speed in m/s (hover to see current wind gust speed)